Time,TemperatureF,DewpointF,PressureIn,WindDirection,WindDirectionDegrees,WindSpeedMPH,WindSpeedGustMPH,Humidity,HourlyPrecipIn,Conditions,Clouds,dailyrainin,SoftwareType,DateUTC
2013-01-23 00:00:00,12.8,4.2,30.74,SW,229,0.0,0.0,68,0.00,,,0.00,Wunderground v.1.15,2013-01-23 07:00:00,
2013-01-23 00:06:00,12.9,4.6,30.74,SW,229,0.0,0.0,69,0.00,,,0.00,Wunderground v.1.15,2013-01-23 07:06:00,
2013-01-23 00:08:00,13.3,5.0,30.74,SW,229,0.0,0.0,69,0.00,,,0.00,Wunderground v.1.15,2013-01-23 07:08:00,
2013-01-23 00:10:00,13.3,5.0,30.74,SW,229,0.0,0.0,69,0.00,,,0.00,Wunderground v.1.15,2013-01-23 07:10:00,
2013-01-23 00:12:00,13.3,4.7,30.74,SW,229,0.0,0.0,68,0.00,,,0.00,Wunderground v.1.15,2013-01-23 07:12:00,
2013-01-23 00:18:00,13.3,5.0,30.70,SW,229,0.0,0.0,69,0.00,,,0.00,Wunderground v.1.15,2013-01-23 07:18:00,
2013-01-23 00:20:00,13.3,5.0,30.70,SW,229,0.0,0.0,69,0.00,,,0.00,Wunderground v.1.15,2013-01-23 07:20:00,
2013-01-23 00:24:00,13.1,4.2,30.70,SW,229,0.0,0.0,67,0.00,,,0.00,Wunderground v.1.15,2013-01-23 07:24:00,
2013-01-23 00:26:00,12.8,3.9,30.70,SW,229,0.0,0.0,67,0.00,,,0.00,Wunderground v.1.15,2013-01-23 07:26:00,
2013-01-23 00:32:00,11.9,3.0,30.71,SW,229,0.0,0.0,67,0.00,,,0.00,Wunderground v.1.15,2013-01-23 07:32:00,
2013-01-23 00:36:00,11.4,2.6,30.71,SW,229,0.0,0.0,67,0.00,,,0.00,Wunderground v.1.15,2013-01-23 07:36:00,
2013-01-23 00:38:00,11.2,2.0,30.71,SW,229,0.0,0.0,66,0.00,,,0.00,Wunderground v.1.15,2013-01-23 07:38:00,
2013-01-23 00:42:00,10.9,1.8,30.71,SW,229,0.0,0.0,66,0.00,,,0.00,Wunderground v.1.15,2013-01-23 07:42:00,
2013-01-23 00:48:00,10.5,1.4,30.71,SW,229,0.0,0.0,66,0.00,,,0.00,Wunderground v.1.15,2013-01-23 07:48:00,
2013-01-23 00:50:00,10.5,1.4,30.71,SW,229,0.0,0.0,66,0.00,,,0.00,Wunderground v.1.15,2013-01-23 07:50:00,
2013-01-23 00:52:00,10.7,2.2,30.71,SW,229,0.0,0.0,68,0.00,,,0.00,Wunderground v.1.15,2013-01-23 07:52:00,
2013-01-23 00:54:00,11.1,2.6,30.71,SW,229,0.0,0.0,68,0.00,,,0.00,Wunderground v.1.15,2013-01-23 07:54:00,
2013-01-23 00:58:00,11.4,2.9,30.71,SW,229,0.0,0.0,68,0.00,,,0.00,Wunderground v.1.15,2013-01-23 07:58:00,
2013-01-23 01:00:00,11.6,3.1,30.71,SW,229,0.0,0.0,68,0.00,,,0.00,Wunderground v.1.15,2013-01-23 08:00:00,
2013-01-23 01:02:00,11.6,3.1,30.71,SW,229,0.0,0.0,68,0.00,,,0.00,Wunderground v.1.15,2013-01-23 08:02:00,
2013-01-23 01:06:00,11.9,3.4,30.71,SW,229,0.0,0.0,68,0.00,,,0.00,Wunderground v.1.15,2013-01-23 08:06:00,
2013-01-23 01:12:00,11.7,2.8,30.71,SW,229,0.0,0.0,67,0.00,,,0.00,Wunderground v.1.15,2013-01-23 08:12:00,
2013-01-23 01:16:00,11.2,2.0,30.72,SW,229,0.0,0.0,66,0.00,,,0.00,Wunderground v.1.15,2013-01-23 08:16:00,
2013-01-23 01:20:00,10.9,1.8,30.72,SW,229,0.0,0.0,66,0.00,,,0.00,Wunderground v.1.15,2013-01-23 08:20:00,
2013-01-23 01:22:00,10.9,2.1,30.72,SW,229,0.0,0.0,67,0.00,,,0.00,Wunderground v.1.15,2013-01-23 08:22:00,
2013-01-23 01:24:00,10.9,2.1,30.72,SW,226,0.0,1.0,67,0.00,,,0.00,Wunderground v.1.15,2013-01-23 08:24:00,
2013-01-23 01:28:00,11.1,2.6,30.72,SW,226,0.0,1.0,68,0.00,,,0.00,Wunderground v.1.15,2013-01-23 08:28:00,
2013-01-23 01:32:00,10.9,2.1,30.72,SW,226,0.0,0.0,67,0.00,,,0.00,Wunderground v.1.15,2013-01-23 08:32:00,
2013-01-23 01:36:00,10.9,2.1,30.72,SW,226,0.0,0.0,67,0.00,,,0.00,Wunderground v.1.15,2013-01-23 08:36:00,
2013-01-23 01:38:00,10.9,2.1,30.72,SW,226,0.0,0.0,67,0.00,,,0.00,Wunderground v.1.15,2013-01-23 08:38:00,
2013-01-23 01:42:00,10.9,1.8,30.72,SW,226,0.0,0.0,66,0.00,,,0.00,Wunderground v.1.15,2013-01-23 08:42:00,
2013-01-23 01:44:00,10.9,1.8,30.72,SW,226,0.0,0.0,66,0.00,,,0.00,Wunderground v.1.15,2013-01-23 08:44:00,
2013-01-23 01:50:00,11.1,1.6,30.72,SW,226,0.0,0.0,65,0.00,,,0.00,Wunderground v.1.15,2013-01-23 08:50:00,
2013-01-23 01:52:00,10.9,1.4,30.72,SW,226,0.0,0.0,65,0.00,,,0.00,Wunderground v.1.15,2013-01-23 08:52:00,
2013-01-23 01:58:00,10.7,1.2,30.72,SW,226,0.0,0.0,65,0.00,,,0.00,Wunderground v.1.15,2013-01-23 08:58:00,
2013-01-23 02:00:00,10.7,1.2,30.72,SW,226,0.0,0.0,65,0.00,,,0.00,Wunderground v.1.15,2013-01-23 09:00:00,
2013-01-23 02:02:00,10.7,1.2,30.72,SW,226,0.0,2.0,65,0.00,,,0.00,Wunderground v.1.15,2013-01-23 09:02:00,
2013-01-23 02:04:00,10.9,1.4,30.72,SW,226,0.0,2.0,65,0.00,,,0.00,Wunderground v.1.15,2013-01-23 09:04:00,
2013-01-23 02:06:00,11.4,1.9,30.72,SW,226,0.0,2.0,65,0.00,,,0.00,Wunderground v.1.15,2013-01-23 09:06:00,
2013-01-23 02:08:00,11.9,2.4,30.72,SW,225,1.0,2.0,65,0.00,,,0.00,Wunderground v.1.15,2013-01-23 09:08:00,
2013-01-23 02:12:00,12.3,2.4,30.72,SW,225,1.0,1.0,64,0.00,,,0.00,Wunderground v.1.15,2013-01-23 09:12:00,
2013-01-23 02:18:00,12.3,2.1,30.70,SW,226,0.0,1.0,63,0.00,,,0.00,Wunderground v.1.15,2013-01-23 09:18:00,
2013-01-23 02:20:00,12.3,2.1,30.70,SW,226,0.0,0.0,63,0.00,,,0.00,Wunderground v.1.15,2013-01-23 09:20:00,
2013-01-23 02:22:00,12.3,1.7,30.70,SW,226,0.0,0.0,62,0.00,,,0.00,Wunderground v.1.15,2013-01-23 09:22:00,
2013-01-23 02:24:00,12.4,1.8,30.70,SW,226,0.0,0.0,62,0.00,,,0.00,Wunderground v.1.15,2013-01-23 09:24:00,
2013-01-23 02:28:00,12.6,2.0,30.70,SW,225,0.0,0.0,62,0.00,,,0.00,Wunderground v.1.15,2013-01-23 09:28:00,
2013-01-23 02:30:00,12.9,2.0,30.70,SW,225,0.0,0.0,61,0.00,,,0.00,Wunderground v.1.15,2013-01-23 09:30:00,
2013-01-23 02:32:00,12.9,2.0,30.70,SW,226,0.0,0.0,61,0.00,,,0.00,Wunderground v.1.15,2013-01-23 09:32:00,
2013-01-23 02:38:00,14.0,2.7,30.70,SW,226,0.0,0.0,60,0.00,,,0.00,Wunderground v.1.15,2013-01-23 09:38:00,
2013-01-23 02:40:00,14.1,2.4,30.70,SW,226,0.0,0.0,59,0.00,,,0.00,Wunderground v.1.15,2013-01-23 09:40:00,
2013-01-23 02:42:00,14.3,2.2,30.70,SW,226,0.0,1.0,58,0.00,,,0.00,Wunderground v.1.15,2013-01-23 09:42:00,
2013-01-23 02:46:00,14.8,2.3,30.70,SW,226,0.0,1.0,57,0.00,,,0.00,Wunderground v.1.15,2013-01-23 09:46:00,
2013-01-23 02:48:00,14.8,2.3,30.70,SW,226,0.0,1.0,57,0.00,,,0.00,Wunderground v.1.15,2013-01-23 09:48:00,
2013-01-23 02:54:00,14.3,2.2,30.70,SW,226,0.0,0.0,58,0.00,,,0.00,Wunderground v.1.15,2013-01-23 09:54:00,
2013-01-23 02:58:00,13.8,2.1,30.70,SW,225,0.0,0.0,59,0.00,,,0.00,Wunderground v.1.15,2013-01-23 09:58:00,
2013-01-23 03:00:00,13.6,1.9,30.70,SW,226,0.0,0.0,59,0.00,,,0.00,Wunderground v.1.15,2013-01-23 10:00:00,
2013-01-23 03:02:00,13.5,1.8,30.70,SW,226,0.0,0.0,59,0.00,,,0.00,Wunderground v.1.15,2013-01-23 10:02:00,
2013-01-23 03:06:00,13.5,1.8,30.70,SW,226,0.0,0.0,59,0.00,,,0.00,Wunderground v.1.15,2013-01-23 10:06:00,
2013-01-23 03:08:00,13.1,1.4,30.70,SW,226,0.0,2.0,59,0.00,,,0.00,Wunderground v.1.15,2013-01-23 10:08:00,
2013-01-23 03:12:00,12.6,1.0,30.70,SW,226,0.0,0.0,59,0.00,,,0.00,Wunderground v.1.15,2013-01-23 10:12:00,
2013-01-23 03:14:00,12.3,0.7,30.70,SW,226,0.0,0.0,59,0.00,,,0.00,Wunderground v.1.15,2013-01-23 10:14:00,
2013-01-23 03:16:00,12.3,1.0,30.73,SW,226,0.0,1.0,60,0.00,,,0.00,Wunderground v.1.15,2013-01-23 10:16:00,
2013-01-23 03:18:00,12.4,0.8,30.73,SW,226,0.0,1.0,59,0.00,,,0.00,Wunderground v.1.15,2013-01-23 10:18:00,
2013-01-23 03:22:00,12.3,0.7,30.73,SW,225,0.0,0.0,59,0.00,,,0.00,Wunderground v.1.15,2013-01-23 10:22:00,
2013-01-23 03:24:00,12.3,0.7,30.73,SW,226,0.0,0.0,59,0.00,,,0.00,Wunderground v.1.15,2013-01-23 10:24:00,
2013-01-23 03:28:00,12.3,0.7,30.73,SW,226,0.0,1.0,59,0.00,,,0.00,Wunderground v.1.15,2013-01-23 10:28:00,
2013-01-23 03:30:00,12.4,0.8,30.73,SW,226,0.0,0.0,59,0.00,,,0.00,Wunderground v.1.15,2013-01-23 10:30:00,
2013-01-23 03:34:00,12.6,0.6,30.73,SW,226,1.0,1.0,58,0.00,,,0.00,Wunderground v.1.15,2013-01-23 10:34:00,
2013-01-23 03:36:00,12.4,0.4,30.73,SW,226,1.0,1.0,58,0.00,,,0.00,Wunderground v.1.15,2013-01-23 10:36:00,
2013-01-23 03:38:00,12.6,1.0,30.73,SW,226,0.0,3.0,59,0.00,,,0.00,Wunderground v.1.15,2013-01-23 10:38:00,
2013-01-23 03:40:00,13.3,1.3,30.73,SW,226,1.0,2.0,58,0.00,,,0.00,Wunderground v.1.15,2013-01-23 10:40:00,
2013-01-23 03:44:00,14.1,1.3,30.73,SW,225,1.0,2.0,56,0.00,,,0.00,Wunderground v.1.15,2013-01-23 10:44:00,
2013-01-23 03:50:00,15.1,1.4,30.70,SW,225,1.0,1.0,54,0.00,,,0.00,Wunderground v.1.15,2013-01-23 10:50:00,
2013-01-23 03:52:00,15.4,1.3,30.70,SW,224,1.0,1.0,53,0.00,,,0.00,Wunderground v.1.15,2013-01-23 10:52:00,
2013-01-23 03:58:00,15.2,0.7,30.70,SW,221,1.0,1.0,52,0.00,,,0.00,Wunderground v.1.15,2013-01-23 10:58:00,
2013-01-23 04:00:00,14.9,0.8,30.70,SW,221,1.0,1.0,53,0.00,,,0.00,Wunderground v.1.15,2013-01-23 11:00:00,
2013-01-23 04:02:00,14.9,0.8,30.70,SW,221,0.0,1.0,53,0.00,,,0.00,Wunderground v.1.15,2013-01-23 11:02:00,
2013-01-23 04:08:00,15.1,1.4,30.70,SW,221,0.0,1.0,54,0.00,,,0.00,Wunderground v.1.15,2013-01-23 11:08:00,
2013-01-23 04:10:00,15.1,1.0,30.70,SW,221,0.0,0.0,53,0.00,,,0.00,Wunderground v.1.15,2013-01-23 11:10:00,
2013-01-23 04:12:00,15.2,1.1,30.70,SW,221,0.0,0.0,53,0.00,,,0.00,Wunderground v.1.15,2013-01-23 11:12:00,
2013-01-23 04:14:00,15.2,1.1,30.70,SW,221,0.0,0.0,53,0.00,,,0.00,Wunderground v.1.15,2013-01-23 11:14:00,
2013-01-23 04:18:00,15.1,1.4,30.70,SW,221,0.0,0.0,54,0.00,,,0.00,Wunderground v.1.15,2013-01-23 11:18:00,
2013-01-23 04:22:00,14.6,0.9,30.70,SW,221,0.0,0.0,54,0.00,,,0.00,Wunderground v.1.15,2013-01-23 11:22:00,
2013-01-23 04:28:00,13.8,1.0,30.70,SW,221,0.0,0.0,56,0.00,,,0.00,Wunderground v.1.15,2013-01-23 11:28:00,
2013-01-23 04:30:00,13.6,1.2,30.69,SW,221,0.0,0.0,57,0.00,,,0.00,Wunderground v.1.15,2013-01-23 11:30:00,
2013-01-23 04:32:00,13.5,1.1,30.69,SW,221,0.0,0.0,57,0.00,,,0.00,Wunderground v.1.15,2013-01-23 11:32:00,
2013-01-23 04:38:00,12.8,0.8,30.69,SW,221,0.0,0.0,58,0.00,,,0.00,Wunderground v.1.15,2013-01-23 11:38:00,
2013-01-23 04:40:00,12.4,0.8,30.69,SW,221,0.0,0.0,59,0.00,,,0.00,Wunderground v.1.15,2013-01-23 11:40:00,
2013-01-23 04:42:00,12.1,0.5,30.69,SW,221,0.0,0.0,59,0.00,,,0.00,Wunderground v.1.15,2013-01-23 11:42:00,
2013-01-23 04:44:00,11.9,0.7,30.69,SW,221,0.0,0.0,60,0.00,,,0.00,Wunderground v.1.15,2013-01-23 11:44:00,
2013-01-23 04:46:00,11.7,0.5,30.70,SW,221,0.0,0.0,60,0.00,,,0.00,Wunderground v.1.15,2013-01-23 11:46:00,
2013-01-23 04:48:00,11.7,0.8,30.70,SW,221,0.0,0.0,61,0.00,,,0.00,Wunderground v.1.15,2013-01-23 11:48:00,
2013-01-23 04:52:00,12.1,0.9,30.70,SW,221,0.0,0.0,60,0.00,,,0.00,Wunderground v.1.15,2013-01-23 11:52:00,
2013-01-23 04:54:00,12.6,1.3,30.70,SW,221,0.0,1.0,60,0.00,,,0.00,Wunderground v.1.15,2013-01-23 11:54:00,
2013-01-23 04:58:00,14.3,1.4,30.70,SW,221,0.0,1.0,56,0.00,,,0.00,Wunderground v.1.15,2013-01-23 11:58:00,
2013-01-23 05:02:00,15.1,1.8,30.69,SW,221,0.0,2.0,55,0.00,,,0.00,Wunderground v.1.15,2013-01-23 12:02:00,
2013-01-23 05:04:00,15.9,1.8,30.69,SW,221,1.0,2.0,53,0.00,,,0.00,Wunderground v.1.15,2013-01-23 12:04:00,
2013-01-23 05:10:00,17.0,1.5,30.69,SW,221,1.0,1.0,50,0.00,,,0.00,Wunderground v.1.15,2013-01-23 12:10:00,
2013-01-23 05:12:00,17.2,1.3,30.69,SW,221,1.0,1.0,49,0.00,,,0.00,Wunderground v.1.15,2013-01-23 12:12:00,
2013-01-23 05:16:00,17.3,1.4,30.74,SW,221,0.0,1.0,49,0.00,,,0.00,Wunderground v.1.15,2013-01-23 12:16:00,
2013-01-23 05:18:00,17.2,1.3,30.74,SW,221,0.0,1.0,49,0.00,,,0.00,Wunderground v.1.15,2013-01-23 12:18:00,
2013-01-23 05:20:00,17.2,1.3,30.74,SW,221,0.0,0.0,49,0.00,,,0.00,Wunderground v.1.15,2013-01-23 12:20:00,
2013-01-23 05:22:00,17.0,1.1,30.74,SW,221,0.0,0.0,49,0.00,,,0.00,Wunderground v.1.15,2013-01-23 12:22:00,
2013-01-23 05:26:00,16.5,1.1,30.74,SW,221,0.0,0.0,50,0.00,,,0.00,Wunderground v.1.15,2013-01-23 12:26:00,
2013-01-23 05:28:00,16.4,1.0,30.74,SW,221,0.0,0.0,50,0.00,,,0.00,Wunderground v.1.15,2013-01-23 12:28:00,
2013-01-23 05:30:00,16.1,0.7,30.74,SW,221,0.0,0.0,50,0.00,,,0.00,Wunderground v.1.15,2013-01-23 12:30:00,
2013-01-23 05:32:00,15.9,0.5,30.75,SW,221,0.0,0.0,50,0.00,,,0.00,Wunderground v.1.15,2013-01-23 12:32:00,
2013-01-23 05:36:00,15.4,0.0,30.75,SW,221,0.0,0.0,50,0.00,,,0.00,Wunderground v.1.15,2013-01-23 12:36:00,
2013-01-23 05:38:00,15.4,0.0,30.75,SW,221,0.0,0.0,50,0.00,,,0.00,Wunderground v.1.15,2013-01-23 12:38:00,
2013-01-23 05:42:00,15.6,0.2,30.75,SW,221,0.0,0.0,50,0.00,,,0.00,Wunderground v.1.15,2013-01-23 12:42:00,
2013-01-23 05:44:00,15.6,0.2,30.75,SW,221,0.0,0.0,50,0.00,,,0.00,Wunderground v.1.15,2013-01-23 12:44:00,
2013-01-23 05:46:00,15.4,0.0,30.76,SW,221,0.0,0.0,50,0.00,,,0.00,Wunderground v.1.15,2013-01-23 12:46:00,
2013-01-23 05:48:00,15.4,0.0,30.76,SW,221,0.0,0.0,50,0.00,,,0.00,Wunderground v.1.15,2013-01-23 12:48:00,
2013-01-23 05:50:00,15.1,0.2,30.76,SW,221,0.0,0.0,51,0.00,,,0.00,Wunderground v.1.15,2013-01-23 12:50:00,
2013-01-23 05:52:00,14.8,-0.1,30.76,SW,221,0.0,0.0,51,0.00,,,0.00,Wunderground v.1.15,2013-01-23 12:52:00,
2013-01-23 05:56:00,13.6,-0.4,30.76,SW,221,0.0,0.0,53,0.00,,,0.00,Wunderground v.1.15,2013-01-23 12:56:00,
2013-01-23 05:58:00,13.5,-0.1,30.76,SW,221,0.0,0.0,54,0.00,,,0.00,Wunderground v.1.15,2013-01-23 12:58:00,
2013-01-23 06:02:00,12.8,-0.7,30.79,SW,221,0.0,0.0,54,0.00,,,0.00,Wunderground v.1.15,2013-01-23 13:02:00,
2013-01-23 06:04:00,12.8,-0.3,30.79,SW,221,0.0,0.0,55,0.00,,,0.00,Wunderground v.1.15,2013-01-23 13:04:00,
2013-01-23 06:08:00,12.4,-0.7,30.79,SW,221,0.0,0.0,55,0.00,,,0.00,Wunderground v.1.15,2013-01-23 13:08:00,
2013-01-23 06:10:00,12.4,-0.7,30.79,SW,221,0.0,0.0,55,0.00,,,0.00,Wunderground v.1.15,2013-01-23 13:10:00,
2013-01-23 06:14:00,12.4,-0.7,30.79,SW,221,0.0,0.0,55,0.00,,,0.00,Wunderground v.1.15,2013-01-23 13:14:00,
2013-01-23 06:16:00,12.4,-0.7,30.84,SW,221,0.0,0.0,55,0.00,,,0.00,Wunderground v.1.15,2013-01-23 13:16:00,
2013-01-23 06:18:00,12.3,-0.8,30.84,SW,221,0.0,0.0,55,0.00,,,0.00,Wunderground v.1.15,2013-01-23 13:18:00,
2013-01-23 06:22:00,12.3,-0.4,30.84,SW,221,0.0,2.0,56,0.00,,,0.00,Wunderground v.1.15,2013-01-23 13:22:00,
2013-01-23 06:26:00,12.1,-1.0,30.84,SW,221,1.0,2.0,55,0.00,,,0.00,Wunderground v.1.15,2013-01-23 13:26:00,
2013-01-23 06:30:00,11.6,-1.1,30.84,SW,221,1.0,1.0,56,0.00,,,0.00,Wunderground v.1.15,2013-01-23 13:30:00,
2013-01-23 06:32:00,11.6,-1.1,30.84,SW,221,1.0,1.0,56,0.00,,,0.00,Wunderground v.1.15,2013-01-23 13:32:00,
2013-01-23 06:36:00,11.4,-0.9,30.84,SW,221,0.0,1.0,57,0.00,,,0.00,Wunderground v.1.15,2013-01-23 13:36:00,
2013-01-23 06:40:00,11.2,-1.1,30.84,SW,221,0.0,0.0,57,0.00,,,0.00,Wunderground v.1.15,2013-01-23 13:40:00,
2013-01-23 06:42:00,11.2,-1.1,30.84,SW,221,0.0,0.0,57,0.00,,,0.00,Wunderground v.1.15,2013-01-23 13:42:00,
2013-01-23 06:46:00,11.2,-1.1,30.85,SW,221,0.0,0.0,57,0.00,,,0.00,Wunderground v.1.15,2013-01-23 13:46:00,
2013-01-23 06:48:00,11.4,-0.9,30.85,SW,221,0.0,0.0,57,0.00,,,0.00,Wunderground v.1.15,2013-01-23 13:48:00,
2013-01-23 06:50:00,11.6,-0.7,30.85,SW,221,0.0,0.0,57,0.00,,,0.00,Wunderground v.1.15,2013-01-23 13:50:00,
2013-01-23 06:54:00,12.4,-0.3,30.85,SW,221,0.0,1.0,56,0.00,,,0.00,Wunderground v.1.15,2013-01-23 13:54:00,
2013-01-23 06:56:00,12.6,-0.2,30.85,SW,221,0.0,1.0,56,0.00,,,0.00,Wunderground v.1.15,2013-01-23 13:56:00,
2013-01-23 07:00:00,12.9,-0.3,30.84,SW,221,0.0,0.0,55,0.00,,,0.00,Wunderground v.1.15,2013-01-23 14:00:00,
2013-01-23 07:04:00,12.9,-0.3,30.84,SW,221,0.0,0.0,55,0.00,,,0.00,Wunderground v.1.15,2013-01-23 14:04:00,
2013-01-23 07:06:00,12.9,-0.3,30.84,SW,221,0.0,0.0,55,0.00,,,0.00,Wunderground v.1.15,2013-01-23 14:06:00,
2013-01-23 07:08:00,12.9,-0.3,30.84,SW,221,0.0,0.0,55,0.00,,,0.00,Wunderground v.1.15,2013-01-23 14:08:00,
2013-01-23 07:14:00,12.6,-0.2,30.84,SW,221,0.0,0.0,56,0.00,,,0.00,Wunderground v.1.15,2013-01-23 14:14:00,
2013-01-23 07:16:00,12.4,0.0,30.89,SW,221,0.0,0.0,57,0.00,,,0.00,Wunderground v.1.15,2013-01-23 14:16:00,
2013-01-23 07:18:00,12.1,-0.2,30.89,SW,221,0.0,0.0,57,0.00,,,0.00,Wunderground v.1.15,2013-01-23 14:18:00,
2013-01-23 07:22:00,11.7,0.1,30.89,SW,221,0.0,0.0,59,0.00,,,0.00,Wunderground v.1.15,2013-01-23 14:22:00,
2013-01-23 07:24:00,11.6,-0.3,30.89,SW,221,0.0,0.0,58,0.00,,,0.00,Wunderground v.1.15,2013-01-23 14:24:00,
2013-01-23 07:26:00,11.4,-0.5,30.89,SW,221,0.0,0.0,58,0.00,,,0.00,Wunderground v.1.15,2013-01-23 14:26:00,
2013-01-23 07:28:00,11.4,-0.2,30.89,SW,221,0.0,0.0,59,0.00,,,0.00,Wunderground v.1.15,2013-01-23 14:28:00,
2013-01-23 07:32:00,11.2,-0.4,30.89,SW,221,0.0,0.0,59,0.00,,,0.00,Wunderground v.1.15,2013-01-23 14:32:00,
2013-01-23 07:34:00,11.2,0.0,30.89,SW,221,0.0,0.0,60,0.00,,,0.00,Wunderground v.1.15,2013-01-23 14:34:00,
2013-01-23 07:36:00,11.2,0.0,30.89,SW,221,0.0,0.0,60,0.00,,,0.00,Wunderground v.1.15,2013-01-23 14:36:00,
2013-01-23 07:38:00,11.2,0.0,30.89,SW,221,0.0,0.0,60,0.00,,,0.00,Wunderground v.1.15,2013-01-23 14:38:00,
2013-01-23 07:42:00,11.1,-0.1,30.89,SW,221,0.0,0.0,60,0.00,,,0.00,Wunderground v.1.15,2013-01-23 14:42:00,
2013-01-23 07:44:00,11.1,0.3,30.89,SW,221,0.0,0.0,61,0.00,,,0.00,Wunderground v.1.15,2013-01-23 14:44:00,
2013-01-23 07:46:00,11.1,0.3,30.88,SW,221,0.0,0.0,61,0.00,,,0.00,Wunderground v.1.15,2013-01-23 14:46:00,
2013-01-23 07:50:00,11.2,-0.4,30.88,SW,221,0.0,0.0,59,0.00,,,0.00,Wunderground v.1.15,2013-01-23 14:50:00,
2013-01-23 07:52:00,11.4,-0.2,30.88,SW,221,0.0,1.0,59,0.00,,,0.00,Wunderground v.1.15,2013-01-23 14:52:00,
2013-01-23 07:54:00,11.7,-0.3,30.88,SW,221,0.0,1.0,58,0.00,,,0.00,Wunderground v.1.15,2013-01-23 14:54:00,
2013-01-23 07:56:00,11.9,-0.4,30.88,SW,221,0.0,1.0,57,0.00,,,0.00,Wunderground v.1.15,2013-01-23 14:56:00,
2013-01-23 08:00:00,12.6,-0.2,30.88,SW,221,0.0,0.0,56,0.00,,,0.00,Wunderground v.1.15,2013-01-23 15:00:00,
2013-01-23 08:06:00,14.0,0.0,30.85,SW,220,1.0,2.0,53,0.00,,,0.00,Wunderground v.1.15,2013-01-23 15:06:00,
2013-01-23 08:08:00,14.3,-0.1,30.85,SW,221,1.0,2.0,52,0.00,,,0.00,Wunderground v.1.15,2013-01-23 15:08:00,
2013-01-23 08:10:00,14.6,0.1,30.85,SW,221,1.0,1.0,52,0.00,,,0.00,Wunderground v.1.15,2013-01-23 15:10:00,
2013-01-23 08:14:00,14.9,0.4,30.85,SW,221,1.0,1.0,52,0.00,,,0.00,Wunderground v.1.15,2013-01-23 15:14:00,
2013-01-23 08:18:00,15.4,0.5,30.85,SW,221,0.0,1.0,51,0.00,,,0.00,Wunderground v.1.15,2013-01-23 15:18:00,
2013-01-23 08:22:00,16.2,1.2,30.85,SW,221,0.0,0.0,51,0.00,,,0.00,Wunderground v.1.15,2013-01-23 15:22:00,
2013-01-23 08:24:00,16.5,1.5,30.85,SW,221,0.0,0.0,51,0.00,,,0.00,Wunderground v.1.15,2013-01-23 15:24:00,
2013-01-23 08:28:00,17.5,2.0,30.85,SW,221,0.0,1.0,50,0.00,,,0.00,Wunderground v.1.15,2013-01-23 15:28:00,
2013-01-23 08:30:00,18.1,2.6,30.83,SW,221,0.0,1.0,50,0.00,,,0.00,Wunderground v.1.15,2013-01-23 15:30:00,
2013-01-23 08:32:00,18.4,2.4,30.83,SW,221,0.0,1.0,49,0.00,,,0.00,Wunderground v.1.15,2013-01-23 15:32:00,
2013-01-23 08:36:00,19.4,2.9,30.83,SW,221,0.0,1.0,48,0.00,,,0.00,Wunderground v.1.15,2013-01-23 15:36:00,
2013-01-23 08:38:00,19.9,2.9,30.83,SW,221,0.0,1.0,47,0.00,,,0.00,Wunderground v.1.15,2013-01-23 15:38:00,
2013-01-23 08:40:00,20.2,2.7,30.83,SW,221,0.0,0.0,46,0.00,,,0.00,Wunderground v.1.15,2013-01-23 15:40:00,
2013-01-23 08:42:00,20.3,2.8,30.83,SW,221,0.0,0.0,46,0.00,,,0.00,Wunderground v.1.15,2013-01-23 15:42:00,
2013-01-23 08:46:00,21.1,3.5,30.81,SW,221,0.0,1.0,46,0.00,,,0.00,Wunderground v.1.15,2013-01-23 15:46:00,
2013-01-23 08:48:00,21.4,2.8,30.81,SW,221,0.0,1.0,44,0.00,,,0.00,Wunderground v.1.15,2013-01-23 15:48:00,
2013-01-23 08:52:00,21.9,3.3,30.81,SW,221,0.0,0.0,44,0.00,,,0.00,Wunderground v.1.15,2013-01-23 15:52:00,
2013-01-23 08:56:00,22.9,3.2,30.81,SW,221,0.0,0.0,42,0.00,,,0.00,Wunderground v.1.15,2013-01-23 15:56:00,
2013-01-23 08:58:00,23.3,3.0,30.81,SW,221,0.0,0.0,41,0.00,,,0.00,Wunderground v.1.15,2013-01-23 15:58:00,
2013-01-23 09:02:00,23.8,2.4,30.80,SW,221,0.0,0.0,39,0.00,,,0.00,Wunderground v.1.15,2013-01-23 16:02:00,
2013-01-23 09:04:00,24.1,2.7,30.80,SW,221,0.0,0.0,39,0.00,,,0.00,Wunderground v.1.15,2013-01-23 16:04:00,
2013-01-23 09:06:00,24.2,2.8,30.80,SW,221,0.0,0.0,39,0.00,,,0.00,Wunderground v.1.15,2013-01-23 16:06:00,
2013-01-23 09:10:00,25.0,3.5,30.80,SW,220,0.0,0.0,39,0.00,,,0.00,Wunderground v.1.15,2013-01-23 16:10:00,
2013-01-23 09:12:00,25.6,2.9,30.80,SW,221,0.0,0.0,37,0.00,,,0.00,Wunderground v.1.15,2013-01-23 16:12:00,
2013-01-23 09:14:00,26.3,2.9,30.80,SW,221,0.0,0.0,36,0.00,,,0.00,Wunderground v.1.15,2013-01-23 16:14:00,
2013-01-23 09:20:00,27.5,3.4,30.78,SW,221,0.0,1.0,35,0.00,,,0.00,Wunderground v.1.15,2013-01-23 16:20:00,
2013-01-23 09:22:00,27.8,3.0,30.78,SW,221,0.0,1.0,34,0.00,,,0.00,Wunderground v.1.15,2013-01-23 16:22:00,
2013-01-23 09:26:00,27.9,3.7,30.78,SW,221,0.0,1.0,35,0.00,,,0.00,Wunderground v.1.15,2013-01-23 16:26:00,
2013-01-23 09:30:00,28.1,3.3,30.78,SW,221,0.0,3.0,34,0.00,,,0.00,Wunderground v.1.15,2013-01-23 16:30:00,
2013-01-23 09:32:00,27.8,1.7,30.77,SW,221,1.0,3.0,32,0.00,,,0.00,Wunderground v.1.15,2013-01-23 16:32:00,
2013-01-23 09:34:00,27.5,2.8,30.77,SW,220,1.0,3.0,34,0.00,,,0.00,Wunderground v.1.15,2013-01-23 16:34:00,
2013-01-23 09:38:00,27.3,3.2,30.77,SW,221,1.0,3.0,35,0.00,,,0.00,Wunderground v.1.15,2013-01-23 16:38:00,
2013-01-23 09:42:00,27.3,3.8,30.77,SW,220,0.0,1.0,36,0.00,,,0.00,Wunderground v.1.15,2013-01-23 16:42:00,
2013-01-23 09:44:00,27.8,4.3,30.77,SW,221,0.0,1.0,36,0.00,,,0.00,Wunderground v.1.15,2013-01-23 16:44:00,
2013-01-23 09:46:00,28.1,3.9,30.77,SW,221,0.0,1.0,35,0.00,,,0.00,Wunderground v.1.15,2013-01-23 16:46:00,
2013-01-23 09:50:00,28.4,3.6,30.77,SW,221,0.0,0.0,34,0.00,,,0.00,Wunderground v.1.15,2013-01-23 16:50:00,
2013-01-23 09:52:00,28.5,3.0,30.77,SW,221,0.0,0.0,33,0.00,,,0.00,Wunderground v.1.15,2013-01-23 16:52:00,
2013-01-23 09:54:00,28.7,3.8,30.77,SW,221,0.0,0.0,34,0.00,,,0.00,Wunderground v.1.15,2013-01-23 16:54:00,
2013-01-23 09:56:00,28.8,2.6,30.77,SW,221,0.0,0.0,32,0.00,,,0.00,Wunderground v.1.15,2013-01-23 16:56:00,
2013-01-23 09:58:00,29.0,3.4,30.77,SW,221,0.0,0.0,33,0.00,,,0.00,Wunderground v.1.15,2013-01-23 16:58:00,
2013-01-23 10:02:00,29.4,3.1,30.77,SW,221,0.0,3.0,32,0.00,,,0.00,Wunderground v.1.15,2013-01-23 17:02:00,
2013-01-23 10:04:00,29.4,4.4,30.77,SW,221,1.0,3.0,34,0.00,,,0.00,Wunderground v.1.15,2013-01-23 17:04:00,
2013-01-23 10:06:00,29.4,3.8,30.77,SW,221,1.0,3.0,33,0.00,,,0.00,Wunderground v.1.15,2013-01-23 17:06:00,
2013-01-23 10:12:00,29.4,2.4,30.77,SW,221,1.0,3.0,31,0.00,,,0.00,Wunderground v.1.15,2013-01-23 17:12:00,
2013-01-23 10:14:00,29.5,2.5,30.77,SW,221,1.0,3.0,31,0.00,,,0.00,Wunderground v.1.15,2013-01-23 17:14:00,
2013-01-23 10:16:00,29.5,1.8,30.77,SW,221,1.0,3.0,30,0.00,,,0.00,Wunderground v.1.15,2013-01-23 17:16:00,
2013-01-23 10:18:00,29.8,2.8,30.77,SW,221,1.0,3.0,31,0.00,,,0.00,Wunderground v.1.15,2013-01-23 17:18:00,
2013-01-23 10:20:00,30.3,2.5,30.77,SW,221,0.0,0.0,30,0.00,,,0.00,Wunderground v.1.15,2013-01-23 17:20:00,
2013-01-23 10:24:00,31.2,1.8,30.77,SW,221,0.0,1.0,28,0.00,,,0.00,Wunderground v.1.15,2013-01-23 17:24:00,
2013-01-23 10:26:00,31.6,2.2,30.77,SW,221,0.0,1.0,28,0.00,,,0.00,Wunderground v.1.15,2013-01-23 17:26:00,
2013-01-23 10:28:00,31.8,2.3,30.77,SW,221,0.0,2.0,28,0.00,,,0.00,Wunderground v.1.15,2013-01-23 17:28:00,
2013-01-23 10:32:00,32.5,3.7,30.75,SW,221,0.0,0.0,29,0.00,,,0.00,Wunderground v.1.15,2013-01-23 17:32:00,
2013-01-23 10:34:00,32.9,3.3,30.75,SW,221,0.0,2.0,28,0.00,,,0.00,Wunderground v.1.15,2013-01-23 17:34:00,
2013-01-23 10:38:00,33.1,2.7,30.75,SW,220,1.0,2.0,27,0.00,,,0.00,Wunderground v.1.15,2013-01-23 17:38:00,
2013-01-23 10:42:00,32.8,3.2,30.75,ESE,116,1.0,2.0,28,0.00,,,0.00,Wunderground v.1.15,2013-01-23 17:42:00,
2013-01-23 10:44:00,32.7,3.1,30.75,ESE,116,1.0,2.0,28,0.00,,,0.00,Wunderground v.1.15,2013-01-23 17:44:00,
2013-01-23 10:48:00,32.9,3.3,30.74,ESE,116,1.0,2.0,28,0.00,,,0.00,Wunderground v.1.15,2013-01-23 17:48:00,
2013-01-23 10:50:00,33.1,4.2,30.74,SE,142,1.0,1.0,29,0.00,,,0.00,Wunderground v.1.15,2013-01-23 17:50:00,
2013-01-23 10:52:00,33.2,3.6,30.74,SSW,201,1.0,2.0,28,0.00,,,0.00,Wunderground v.1.15,2013-01-23 17:52:00,
2013-01-23 10:54:00,33.1,4.2,30.74,SSW,200,1.0,2.0,29,0.00,,,0.00,Wunderground v.1.15,2013-01-23 17:54:00,
2013-01-23 10:56:00,33.1,2.7,30.74,SSW,201,1.0,3.0,27,0.00,,,0.00,Wunderground v.1.15,2013-01-23 17:56:00,
2013-01-23 10:58:00,33.2,3.6,30.74,SSW,200,1.0,3.0,28,0.00,,,0.00,Wunderground v.1.15,2013-01-23 17:58:00,
2013-01-23 11:00:00,33.5,4.6,30.74,SSW,201,1.0,1.0,29,0.00,,,0.00,Wunderground v.1.15,2013-01-23 18:00:00,
2013-01-23 11:02:00,33.5,4.6,30.74,SSW,201,1.0,1.0,29,0.00,,,0.00,Wunderground v.1.15,2013-01-23 18:02:00,
2013-01-23 11:06:00,33.5,3.8,30.74,SSW,200,1.0,1.0,28,0.00,,,0.00,Wunderground v.1.15,2013-01-23 18:06:00,
2013-01-23 11:08:00,33.7,4.8,30.74,SSW,200,1.0,1.0,29,0.00,,,0.00,Wunderground v.1.15,2013-01-23 18:08:00,
2013-01-23 11:12:00,34.4,4.6,30.74,SSW,201,0.0,0.0,28,0.00,,,0.00,Wunderground v.1.15,2013-01-23 18:12:00,
2013-01-23 11:18:00,34.6,4.8,30.72,SSW,201,1.0,4.0,28,0.00,,,0.00,Wunderground v.1.15,2013-01-23 18:18:00,
2013-01-23 11:20:00,34.4,3.8,30.72,SSW,201,1.0,1.0,27,0.00,,,0.00,Wunderground v.1.15,2013-01-23 18:20:00,
2013-01-23 11:22:00,34.6,4.0,30.72,SSW,201,1.0,1.0,27,0.00,,,0.00,Wunderground v.1.15,2013-01-23 18:22:00,
2013-01-23 11:26:00,35.3,5.4,30.72,SSW,200,1.0,1.0,28,0.00,,,0.00,Wunderground v.1.15,2013-01-23 18:26:00,
2013-01-23 11:28:00,35.6,6.4,30.72,SSW,200,0.0,1.0,29,0.00,,,0.00,Wunderground v.1.15,2013-01-23 18:28:00,
2013-01-23 11:30:00,35.8,5.0,30.71,SSW,201,0.0,0.0,27,0.00,,,0.00,Wunderground v.1.15,2013-01-23 18:30:00,
2013-01-23 11:32:00,35.9,5.9,30.71,SSW,201,0.0,0.0,28,0.00,,,0.00,Wunderground v.1.15,2013-01-23 18:32:00,
2013-01-23 11:36:00,36.0,6.0,30.71,SSW,200,1.0,1.0,28,0.00,,,0.00,Wunderground v.1.15,2013-01-23 18:36:00,
2013-01-23 11:42:00,36.0,4.4,30.71,SSW,201,1.0,1.0,26,0.00,,,0.00,Wunderground v.1.15,2013-01-23 18:42:00,
2013-01-23 11:44:00,36.2,4.5,30.71,SSW,200,1.0,1.0,26,0.00,,,0.00,Wunderground v.1.15,2013-01-23 18:44:00,
2013-01-23 11:48:00,36.0,5.2,30.71,SSW,201,1.0,1.0,27,0.00,,,0.00,Wunderground v.1.15,2013-01-23 18:48:00,
2013-01-23 11:50:00,36.3,4.6,30.71,SSW,201,1.0,1.0,26,0.00,,,0.00,Wunderground v.1.15,2013-01-23 18:50:00,
2013-01-23 11:52:00,36.3,4.6,30.71,SSW,201,1.0,1.0,26,0.00,,,0.00,Wunderground v.1.15,2013-01-23 18:52:00,
2013-01-23 11:58:00,35.6,9.9,30.71,NW,317,2.0,5.0,34,0.00,,,0.00,Wunderground v.1.15,2013-01-23 18:58:00,
2013-01-23 12:00:00,34.9,11.2,30.71,NW,324,3.0,3.0,37,0.00,,,0.00,Wunderground v.1.15,2013-01-23 19:00:00,
2013-01-23 12:02:00,34.3,11.9,30.72,NW,316,3.0,3.0,39,0.00,,,0.00,Wunderground v.1.15,2013-01-23 19:02:00,
2013-01-23 12:04:00,33.8,11.4,30.72,NW,306,3.0,3.0,39,0.00,,,0.00,Wunderground v.1.15,2013-01-23 19:04:00,
2013-01-23 12:08:00,32.9,11.7,30.72,NNW,327,3.0,5.0,41,0.00,,,0.00,Wunderground v.1.15,2013-01-23 19:08:00,
2013-01-23 12:10:00,32.7,11.6,30.72,WNW,297,3.0,3.0,41,0.00,,,0.00,Wunderground v.1.15,2013-01-23 19:10:00,
2013-01-23 12:12:00,32.4,12.4,30.72,North,32767,3.0,3.0,43,0.00,,,0.00,Wunderground v.1.15,2013-01-23 19:12:00,
2013-01-23 12:14:00,32.2,12.2,30.72,NNW,336,3.0,3.0,43,0.00,,,0.00,Wunderground v.1.15,2013-01-23 19:14:00,
2013-01-23 12:18:00,31.9,9.7,30.75,NNW,336,3.0,3.0,39,0.00,,,0.00,Wunderground v.1.15,2013-01-23 19:18:00,
2013-01-23 12:20:00,31.9,9.7,30.75,NNE,20,3.0,3.0,39,0.00,,,0.00,Wunderground v.1.15,2013-01-23 19:20:00,
2013-01-23 12:26:00,31.9,9.7,30.75,NNE,25,2.0,3.0,39,0.00,,,0.00,Wunderground v.1.15,2013-01-23 19:26:00,
2013-01-23 12:32:00,32.4,9.6,30.75,NNE,22,1.0,1.0,38,0.00,,,0.00,Wunderground v.1.15,2013-01-23 19:32:00,
2013-01-23 12:34:00,32.5,8.5,30.75,NNE,22,1.0,1.0,36,0.00,,,0.00,Wunderground v.1.15,2013-01-23 19:34:00,
2013-01-23 12:36:00,32.5,7.8,30.75,NNE,20,0.0,1.0,35,0.00,,,0.00,Wunderground v.1.15,2013-01-23 19:36:00,
2013-01-23 12:38:00,32.7,9.3,30.75,NNE,20,0.0,1.0,37,0.00,,,0.00,Wunderground v.1.15,2013-01-23 19:38:00,
2013-01-23 12:40:00,32.8,7.5,30.75,NNE,20,0.0,1.0,34,0.00,,,0.00,Wunderground v.1.15,2013-01-23 19:40:00,
2013-01-23 12:46:00,33.2,9.1,30.75,NNE,20,0.0,1.0,36,0.00,,,0.00,Wunderground v.1.15,2013-01-23 19:46:00,
2013-01-23 12:48:00,33.5,8.7,30.75,NNE,20,0.0,1.0,35,0.00,,,0.00,Wunderground v.1.15,2013-01-23 19:48:00,
2013-01-23 12:52:00,34.0,7.9,30.75,NNE,24,0.0,2.0,33,0.00,,,0.00,Wunderground v.1.15,2013-01-23 19:52:00,
2013-01-23 12:54:00,34.3,9.4,30.75,NNE,23,0.0,2.0,35,0.00,,,0.00,Wunderground v.1.15,2013-01-23 19:54:00,
2013-01-23 12:56:00,34.6,10.3,30.75,SE,134,0.0,2.0,36,0.00,,,0.00,Wunderground v.1.15,2013-01-23 19:56:00,
2013-01-23 13:00:00,34.7,8.5,30.72,SE,134,0.0,0.0,33,0.00,,,0.00,Wunderground v.1.15,2013-01-23 20:00:00,
2013-01-23 13:04:00,34.6,8.4,30.72,SE,134,1.0,3.0,33,0.00,,,0.00,Wunderground v.1.15,2013-01-23 20:04:00,
2013-01-23 13:06:00,34.4,8.9,30.72,SE,134,1.0,3.0,34,0.00,,,0.00,Wunderground v.1.15,2013-01-23 20:06:00,
2013-01-23 13:08:00,34.4,8.9,30.72,SE,134,1.0,3.0,34,0.00,,,0.00,Wunderground v.1.15,2013-01-23 20:08:00,
2013-01-23 13:10:00,34.4,10.2,30.72,SE,138,1.0,1.0,36,0.00,,,0.00,Wunderground v.1.15,2013-01-23 20:10:00,
2013-01-23 13:12:00,34.3,9.4,30.72,SE,137,1.0,1.0,35,0.00,,,0.00,Wunderground v.1.15,2013-01-23 20:12:00,
2013-01-23 13:14:00,34.4,10.2,30.72,SE,138,1.0,2.0,36,0.00,,,0.00,Wunderground v.1.15,2013-01-23 20:14:00,
2013-01-23 13:16:00,34.4,9.5,30.73,SE,138,1.0,2.0,35,0.00,,,0.00,Wunderground v.1.15,2013-01-23 20:16:00,
2013-01-23 13:18:00,34.6,7.0,30.73,SE,138,1.0,2.0,31,0.00,,,0.00,Wunderground v.1.15,2013-01-23 20:18:00,
2013-01-23 13:20:00,34.6,8.4,30.73,SE,138,1.0,1.0,33,0.00,,,0.00,Wunderground v.1.15,2013-01-23 20:20:00,
2013-01-23 13:22:00,34.9,10.0,30.73,SE,138,1.0,1.0,35,0.00,,,0.00,Wunderground v.1.15,2013-01-23 20:22:00,
2013-01-23 13:24:00,35.0,10.1,30.73,SE,138,1.0,3.0,35,0.00,,,0.00,Wunderground v.1.15,2013-01-23 20:24:00,
2013-01-23 13:30:00,35.3,7.6,30.73,SW,229,1.0,1.0,31,0.00,,,0.00,Wunderground v.1.15,2013-01-23 20:30:00,
2013-01-23 13:32:00,35.3,7.6,30.71,SW,229,1.0,1.0,31,0.00,,,0.00,Wunderground v.1.15,2013-01-23 20:32:00,
2013-01-23 13:38:00,35.6,8.6,30.71,SW,229,0.0,1.0,32,0.00,,,0.00,Wunderground v.1.15,2013-01-23 20:38:00,
2013-01-23 13:40:00,35.8,8.1,30.71,SW,229,0.0,0.0,31,0.00,,,0.00,Wunderground v.1.15,2013-01-23 20:40:00,
2013-01-23 13:44:00,36.3,7.8,30.71,SW,229,0.0,0.0,30,0.00,,,0.00,Wunderground v.1.15,2013-01-23 20:44:00,
2013-01-23 13:46:00,36.3,7.0,30.70,SW,229,0.0,0.0,29,0.00,,,0.00,Wunderground v.1.15,2013-01-23 20:46:00,
2013-01-23 13:52:00,36.6,9.5,30.70,SW,229,0.0,0.0,32,0.00,,,0.00,Wunderground v.1.15,2013-01-23 20:52:00,
2013-01-23 13:54:00,36.8,9.7,30.70,SW,229,0.0,2.0,32,0.00,,,0.00,Wunderground v.1.15,2013-01-23 20:54:00,
2013-01-23 13:58:00,36.6,8.8,30.70,SW,229,0.0,2.0,31,0.00,,,0.00,Wunderground v.1.15,2013-01-23 20:58:00,
2013-01-23 14:00:00,36.8,9.7,30.68,SW,229,0.0,0.0,32,0.00,,,0.00,Wunderground v.1.15,2013-01-23 21:00:00,
2013-01-23 14:04:00,37.0,9.8,30.68,SW,229,0.0,0.0,32,0.00,,,0.00,Wunderground v.1.15,2013-01-23 21:04:00,
2013-01-23 14:06:00,37.2,12.0,30.68,SW,229,0.0,0.0,35,0.00,,,0.00,Wunderground v.1.15,2013-01-23 21:06:00,
2013-01-23 14:10:00,37.2,11.4,30.68,NNE,22,1.0,1.0,34,0.00,,,0.00,Wunderground v.1.15,2013-01-23 21:10:00,
2013-01-23 14:14:00,37.0,11.2,30.68,NNE,21,1.0,3.0,34,0.00,,,0.00,Wunderground v.1.15,2013-01-23 21:14:00,
2013-01-23 14:18:00,37.0,9.8,30.67,NNE,21,1.0,3.0,32,0.00,,,0.00,Wunderground v.1.15,2013-01-23 21:18:00,
2013-01-23 14:22:00,37.2,9.3,30.67,NNE,21,0.0,0.0,31,0.00,,,0.00,Wunderground v.1.15,2013-01-23 21:22:00,
2013-01-23 14:26:00,37.0,9.8,30.67,NNE,26,0.0,0.0,32,0.00,,,0.00,Wunderground v.1.15,2013-01-23 21:26:00,
2013-01-23 14:28:00,37.0,11.8,30.67,NNE,26,0.0,0.0,35,0.00,,,0.00,Wunderground v.1.15,2013-01-23 21:28:00,
2013-01-23 14:32:00,37.3,9.4,30.66,NNE,24,0.0,0.0,31,0.00,,,0.00,Wunderground v.1.15,2013-01-23 21:32:00,
2013-01-23 14:34:00,37.5,9.6,30.66,NNE,24,0.0,0.0,31,0.00,,,0.00,Wunderground v.1.15,2013-01-23 21:34:00,
2013-01-23 14:36:00,37.8,9.8,30.66,NNE,22,0.0,0.0,31,0.00,,,0.00,Wunderground v.1.15,2013-01-23 21:36:00,
2013-01-23 14:38:00,37.9,9.2,30.66,NNE,22,0.0,0.0,30,0.00,,,0.00,Wunderground v.1.15,2013-01-23 21:38:00,
2013-01-23 14:40:00,38.2,9.4,30.66,NNE,22,0.0,0.0,30,0.00,,,0.00,Wunderground v.1.15,2013-01-23 21:40:00,
2013-01-23 14:42:00,38.3,10.3,30.66,NNE,22,0.0,0.0,31,0.00,,,0.00,Wunderground v.1.15,2013-01-23 21:42:00,
2013-01-23 14:44:00,38.3,10.3,30.66,North,5,0.0,0.0,31,0.00,,,0.00,Wunderground v.1.15,2013-01-23 21:44:00,
2013-01-23 14:46:00,38.3,11.0,30.64,North,5,1.0,1.0,32,0.00,,,0.00,Wunderground v.1.15,2013-01-23 21:46:00,
2013-01-23 14:50:00,38.3,12.3,30.64,North,32767,1.0,1.0,34,0.00,,,0.00,Wunderground v.1.15,2013-01-23 21:50:00,
2013-01-23 14:52:00,38.2,11.6,30.64,WNW,299,1.0,1.0,33,0.00,,,0.00,Wunderground v.1.15,2013-01-23 21:52:00,
2013-01-23 14:54:00,38.2,11.6,30.64,WNW,300,1.0,1.0,33,0.00,,,0.00,Wunderground v.1.15,2013-01-23 21:54:00,
2013-01-23 14:58:00,38.0,12.1,30.64,WNW,301,1.0,2.0,34,0.00,,,0.00,Wunderground v.1.15,2013-01-23 21:58:00,
2013-01-23 15:01:00,38.0,12.1,30.64,WNW,301,1.0,1.0,34,0.00,,,0.00,Wunderground v.1.15,2013-01-23 22:01:00,
2013-01-23 15:02:00,38.2,12.3,30.64,WNW,301,1.0,1.0,34,0.00,,,0.00,Wunderground v.1.15,2013-01-23 22:02:00,
2013-01-23 15:04:00,38.2,11.6,30.64,WNW,301,1.0,2.0,33,0.00,,,0.00,Wunderground v.1.15,2013-01-23 22:04:00,
2013-01-23 15:06:00,38.2,11.6,30.64,WNW,301,1.0,2.0,33,0.00,,,0.00,Wunderground v.1.15,2013-01-23 22:06:00,
2013-01-23 15:08:00,38.3,11.7,30.64,NW,320,1.0,2.0,33,0.00,,,0.00,Wunderground v.1.15,2013-01-23 22:08:00,
2013-01-23 15:12:00,38.5,11.1,30.64,NW,315,1.0,1.0,32,0.00,,,0.00,Wunderground v.1.15,2013-01-23 22:12:00,
2013-01-23 15:14:00,38.5,11.8,30.64,NW,315,1.0,1.0,33,0.00,,,0.00,Wunderground v.1.15,2013-01-23 22:14:00,
2013-01-23 15:18:00,38.2,10.2,30.62,NW,316,2.0,3.0,31,0.00,,,0.00,Wunderground v.1.15,2013-01-23 22:18:00,
2013-01-23 15:22:00,37.8,10.5,30.62,WNW,286,3.0,3.0,32,0.00,,,0.00,Wunderground v.1.15,2013-01-23 22:22:00,
2013-01-23 15:24:00,37.6,12.4,30.62,WNW,290,3.0,3.0,35,0.00,,,0.00,Wunderground v.1.15,2013-01-23 22:24:00,
2013-01-23 15:28:00,37.3,12.1,30.62,WNW,303,3.0,4.0,35,0.00,,,0.00,Wunderground v.1.15,2013-01-23 22:28:00,
2013-01-23 15:31:00,37.0,11.8,30.64,NW,312,3.0,4.0,35,0.00,,,0.00,Wunderground v.1.15,2013-01-23 22:31:00,
2013-01-23 15:32:00,36.9,11.8,30.64,WNW,303,2.0,4.0,35,0.00,,,0.00,Wunderground v.1.15,2013-01-23 22:32:00,
2013-01-23 15:38:00,36.5,11.4,30.64,NW,309,2.0,4.0,35,0.00,,,0.00,Wunderground v.1.15,2013-01-23 22:38:00,
2013-01-23 15:40:00,36.5,10.7,30.64,NW,309,2.0,2.0,34,0.00,,,0.00,Wunderground v.1.15,2013-01-23 22:40:00,
2013-01-23 15:42:00,36.5,10.7,30.64,NW,306,2.0,3.0,34,0.00,,,0.00,Wunderground v.1.15,2013-01-23 22:42:00,
2013-01-23 15:46:00,36.3,9.9,30.65,WNW,301,2.0,3.0,33,0.00,,,0.00,Wunderground v.1.15,2013-01-23 22:46:00,
2013-01-23 15:48:00,36.3,9.9,30.65,WNW,301,1.0,3.0,33,0.00,,,0.00,Wunderground v.1.15,2013-01-23 22:48:00,
2013-01-23 15:50:00,36.3,9.2,30.65,WNW,301,1.0,1.0,32,0.00,,,0.00,Wunderground v.1.15,2013-01-23 22:50:00,
2013-01-23 15:52:00,36.3,9.9,30.65,WNW,301,1.0,1.0,33,0.00,,,0.00,Wunderground v.1.15,2013-01-23 22:52:00,
2013-01-23 15:54:00,36.3,9.9,30.65,WNW,302,1.0,1.0,33,0.00,,,0.00,Wunderground v.1.15,2013-01-23 22:54:00,
2013-01-23 15:56:00,36.2,10.5,30.65,WNW,302,0.0,1.0,34,0.00,,,0.00,Wunderground v.1.15,2013-01-23 22:56:00,
2013-01-23 16:00:00,36.0,10.3,30.65,WNW,301,0.0,0.0,34,0.00,,,0.00,Wunderground v.1.15,2013-01-23 23:00:00,
2013-01-23 16:02:00,36.0,10.3,30.65,WNW,301,0.0,0.0,34,0.00,,,0.00,Wunderground v.1.15,2013-01-23 23:02:00,
2013-01-23 16:04:00,36.0,11.0,30.65,WNW,301,0.0,0.0,35,0.00,,,0.00,Wunderground v.1.15,2013-01-23 23:04:00,
2013-01-23 16:08:00,36.0,11.0,30.65,WNW,301,0.0,0.0,35,0.00,,,0.00,Wunderground v.1.15,2013-01-23 23:08:00,
2013-01-23 16:10:00,36.0,11.0,30.65,WNW,301,0.0,0.0,35,0.00,,,0.00,Wunderground v.1.15,2013-01-23 23:10:00,
2013-01-23 16:14:00,36.2,9.8,30.65,WNW,301,0.0,0.0,33,0.00,,,0.00,Wunderground v.1.15,2013-01-23 23:14:00,
2013-01-23 16:16:00,36.2,9.8,30.65,WNW,301,0.0,0.0,33,0.00,,,0.00,Wunderground v.1.15,2013-01-23 23:16:00,
2013-01-23 16:18:00,36.2,10.5,30.65,WNW,302,0.0,0.0,34,0.00,,,0.00,Wunderground v.1.15,2013-01-23 23:18:00,
2013-01-23 16:20:00,36.2,10.5,30.65,WNW,301,0.0,0.0,34,0.00,,,0.00,Wunderground v.1.15,2013-01-23 23:20:00,
2013-01-23 16:22:00,36.2,11.1,30.65,WNW,302,0.0,0.0,35,0.00,,,0.00,Wunderground v.1.15,2013-01-23 23:22:00,
2013-01-23 16:24:00,36.2,11.1,30.65,WNW,302,0.0,0.0,35,0.00,,,0.00,Wunderground v.1.15,2013-01-23 23:24:00,
2013-01-23 16:28:00,36.0,10.3,30.65,WNW,302,0.0,0.0,34,0.00,,,0.00,Wunderground v.1.15,2013-01-23 23:28:00,
2013-01-23 16:31:00,35.9,10.2,30.65,WNW,301,0.0,0.0,34,0.00,,,0.00,Wunderground v.1.15,2013-01-23 23:31:00,
2013-01-23 16:34:00,35.6,9.9,30.65,WNW,301,0.0,0.0,34,0.00,,,0.00,Wunderground v.1.15,2013-01-23 23:34:00,
2013-01-23 16:36:00,35.5,11.1,30.65,WNW,301,0.0,0.0,36,0.00,,,0.00,Wunderground v.1.15,2013-01-23 23:36:00,
2013-01-23 16:40:00,35.0,12.5,30.65,WNW,302,0.0,0.0,39,0.00,,,0.00,Wunderground v.1.15,2013-01-23 23:40:00,
2013-01-23 16:42:00,34.9,12.4,30.65,WNW,301,0.0,0.0,39,0.00,,,0.00,Wunderground v.1.15,2013-01-23 23:42:00,
2013-01-23 16:44:00,34.7,13.4,30.65,WNW,302,0.0,0.0,41,0.00,,,0.00,Wunderground v.1.15,2013-01-23 23:44:00,
2013-01-23 16:46:00,34.6,12.7,30.65,WNW,301,0.0,0.0,40,0.00,,,0.00,Wunderground v.1.15,2013-01-23 23:46:00,
2013-01-23 16:48:00,34.4,13.1,30.65,WNW,302,0.0,0.0,41,0.00,,,0.00,Wunderground v.1.15,2013-01-23 23:48:00,
2013-01-23 16:54:00,33.8,13.6,30.65,WNW,302,0.0,0.0,43,0.00,,,0.00,Wunderground v.1.15,2013-01-23 23:54:00,
2013-01-23 16:56:00,33.7,13.5,30.65,WNW,301,0.0,0.0,43,0.00,,,0.00,Wunderground v.1.15,2013-01-23 23:56:00,
2013-01-23 17:02:00,33.2,13.6,30.68,WNW,301,0.0,0.0,44,0.00,,,0.00,Wunderground v.1.15,2013-01-24 00:02:00,
2013-01-23 17:04:00,33.1,13.5,30.68,WNW,301,0.0,0.0,44,0.00,,,0.00,Wunderground v.1.15,2013-01-24 00:04:00,
2013-01-23 17:06:00,32.9,13.3,30.68,WNW,301,0.0,0.0,44,0.00,,,0.00,Wunderground v.1.15,2013-01-24 00:06:00,
2013-01-23 17:08:00,32.8,13.2,30.68,WNW,301,0.0,0.0,44,0.00,,,0.00,Wunderground v.1.15,2013-01-24 00:08:00,
2013-01-23 17:14:00,32.5,14.0,30.68,WNW,301,0.0,0.0,46,0.00,,,0.00,Wunderground v.1.15,2013-01-24 00:14:00,
2013-01-23 17:16:00,32.4,14.4,30.71,WNW,301,0.0,0.0,47,0.00,,,0.00,Wunderground v.1.15,2013-01-24 00:16:00,
2013-01-23 17:20:00,32.1,14.6,30.71,WNW,301,0.0,0.0,48,0.00,,,0.00,Wunderground v.1.15,2013-01-24 00:20:00,
2013-01-23 17:22:00,31.9,13.9,30.71,WNW,301,0.0,0.0,47,0.00,,,0.00,Wunderground v.1.15,2013-01-24 00:22:00,
2013-01-23 17:24:00,31.9,14.4,30.71,WNW,301,0.0,0.0,48,0.00,,,0.00,Wunderground v.1.15,2013-01-24 00:24:00,
2013-01-23 17:31:00,31.5,14.0,30.71,WNW,301,0.0,0.0,48,0.00,,,0.00,Wunderground v.1.15,2013-01-24 00:31:00,
2013-01-23 17:34:00,31.3,14.3,30.71,WNW,301,0.0,0.0,49,0.00,,,0.00,Wunderground v.1.15,2013-01-24 00:34:00,
2013-01-23 17:36:00,31.2,14.7,30.71,WNW,301,0.0,0.0,50,0.00,,,0.00,Wunderground v.1.15,2013-01-24 00:36:00,
2013-01-23 17:38:00,31.0,14.5,30.71,WNW,301,0.0,0.0,50,0.00,,,0.00,Wunderground v.1.15,2013-01-24 00:38:00,
2013-01-23 17:42:00,30.9,14.9,30.71,WNW,301,0.0,0.0,51,0.00,,,0.00,Wunderground v.1.15,2013-01-24 00:42:00,
2013-01-23 17:44:00,30.7,14.7,30.71,WNW,301,0.0,0.0,51,0.00,,,0.00,Wunderground v.1.15,2013-01-24 00:44:00,
2013-01-23 17:48:00,30.4,14.9,30.71,WNW,301,0.0,0.0,52,0.00,,,0.00,Wunderground v.1.15,2013-01-24 00:48:00,
2013-01-23 17:50:00,30.3,14.8,30.71,WNW,301,0.0,0.0,52,0.00,,,0.00,Wunderground v.1.15,2013-01-24 00:50:00,
2013-01-23 17:52:00,30.1,15.0,30.71,WNW,301,0.0,0.0,53,0.00,,,0.00,Wunderground v.1.15,2013-01-24 00:52:00,
2013-01-23 17:56:00,30.0,14.9,30.71,WNW,301,0.0,0.0,53,0.00,,,0.00,Wunderground v.1.15,2013-01-24 00:56:00,
2013-01-23 17:58:00,29.7,14.6,30.71,WNW,301,0.0,0.0,53,0.00,,,0.00,Wunderground v.1.15,2013-01-24 00:58:00,
2013-01-23 18:00:00,29.5,14.9,30.73,WNW,301,0.0,0.0,54,0.00,,,0.00,Wunderground v.1.15,2013-01-24 01:00:00,
2013-01-23 18:04:00,29.4,14.8,30.73,WNW,301,0.0,0.0,54,0.00,,,0.00,Wunderground v.1.15,2013-01-24 01:04:00,
2013-01-23 18:06:00,29.3,14.7,30.73,WNW,301,0.0,0.0,54,0.00,,,0.00,Wunderground v.1.15,2013-01-24 01:06:00,
2013-01-23 18:08:00,29.1,14.5,30.73,WNW,301,0.0,0.0,54,0.00,,,0.00,Wunderground v.1.15,2013-01-24 01:08:00,
2013-01-23 18:12:00,29.0,14.4,30.73,WNW,301,0.0,0.0,54,0.00,,,0.00,Wunderground v.1.15,2013-01-24 01:12:00,
2013-01-23 18:14:00,28.8,14.6,30.73,WNW,301,0.0,0.0,55,0.00,,,0.00,Wunderground v.1.15,2013-01-24 01:14:00,
2013-01-23 18:16:00,28.5,14.8,30.72,WNW,301,0.0,0.0,56,0.00,,,0.00,Wunderground v.1.15,2013-01-24 01:16:00,
2013-01-23 18:20:00,27.9,14.2,30.72,WNW,301,0.0,0.0,56,0.00,,,0.00,Wunderground v.1.15,2013-01-24 01:20:00,
2013-01-23 18:22:00,27.8,14.1,30.72,WNW,301,0.0,0.0,56,0.00,,,0.00,Wunderground v.1.15,2013-01-24 01:22:00,
2013-01-23 18:26:00,27.8,14.1,30.72,WNW,301,0.0,0.0,56,0.00,,,0.00,Wunderground v.1.15,2013-01-24 01:26:00,
2013-01-23 18:28:00,27.9,14.2,30.72,WNW,301,0.0,0.0,56,0.00,,,0.00,Wunderground v.1.15,2013-01-24 01:28:00,
2013-01-23 18:30:00,27.9,14.2,30.72,WNW,301,0.0,0.0,56,0.00,,,0.00,Wunderground v.1.15,2013-01-24 01:30:00,
2013-01-23 18:32:00,28.1,14.4,30.73,WNW,302,0.0,0.0,56,0.00,,,0.00,Wunderground v.1.15,2013-01-24 01:32:00,
2013-01-23 18:34:00,28.1,14.4,30.73,WNW,301,0.0,0.0,56,0.00,,,0.00,Wunderground v.1.15,2013-01-24 01:34:00,
2013-01-23 18:36:00,28.1,14.4,30.73,WNW,301,0.0,0.0,56,0.00,,,0.00,Wunderground v.1.15,2013-01-24 01:36:00,
2013-01-23 18:40:00,27.9,14.2,30.73,WNW,301,0.0,0.0,56,0.00,,,0.00,Wunderground v.1.15,2013-01-24 01:40:00,
2013-01-23 18:42:00,27.8,14.1,30.73,WNW,301,0.0,0.0,56,0.00,,,0.00,Wunderground v.1.15,2013-01-24 01:42:00,
2013-01-23 18:44:00,27.5,13.8,30.73,WNW,301,0.0,0.0,56,0.00,,,0.00,Wunderground v.1.15,2013-01-24 01:44:00,
2013-01-23 18:46:00,27.2,13.6,30.72,WNW,301,0.0,0.0,56,0.00,,,0.00,Wunderground v.1.15,2013-01-24 01:46:00,
2013-01-23 18:48:00,27.0,13.8,30.72,WNW,301,0.0,0.0,57,0.00,,,0.00,Wunderground v.1.15,2013-01-24 01:48:00,
2013-01-23 18:54:00,26.6,13.8,30.72,WNW,301,0.0,0.0,58,0.00,,,0.00,Wunderground v.1.15,2013-01-24 01:54:00,
2013-01-23 18:56:00,26.7,13.9,30.72,WNW,300,0.0,0.0,58,0.00,,,0.00,Wunderground v.1.15,2013-01-24 01:56:00,
2013-01-23 18:58:00,26.7,13.9,30.72,WNW,300,0.0,0.0,58,0.00,,,0.00,Wunderground v.1.15,2013-01-24 01:58:00,
2013-01-23 19:00:00,26.7,13.9,30.72,WNW,300,0.0,0.0,58,0.00,,,0.00,Wunderground v.1.15,2013-01-24 02:00:00,
2013-01-23 19:02:00,26.7,13.9,30.72,WNW,300,0.0,0.0,58,0.00,,,0.00,Wunderground v.1.15,2013-01-24 02:02:00,
2013-01-23 19:06:00,26.7,13.9,30.72,WNW,300,0.0,0.0,58,0.00,,,0.00,Wunderground v.1.15,2013-01-24 02:06:00,
2013-01-23 19:08:00,26.7,13.9,30.72,WNW,300,0.0,0.0,58,0.00,,,0.00,Wunderground v.1.15,2013-01-24 02:08:00,
2013-01-23 19:12:00,26.7,13.9,30.72,WNW,300,0.0,0.0,58,0.00,,,0.00,Wunderground v.1.15,2013-01-24 02:12:00,
2013-01-23 19:14:00,26.7,14.3,30.72,WNW,300,0.0,0.0,59,0.00,,,0.00,Wunderground v.1.15,2013-01-24 02:14:00,
2013-01-23 19:16:00,26.7,14.3,30.72,WNW,300,0.0,0.0,59,0.00,,,0.00,Wunderground v.1.15,2013-01-24 02:16:00,
2013-01-23 19:20:00,26.6,14.2,30.72,WNW,300,0.0,0.0,59,0.00,,,0.00,Wunderground v.1.15,2013-01-24 02:20:00,
2013-01-23 19:22:00,26.6,14.6,30.72,WNW,300,0.0,0.0,60,0.00,,,0.00,Wunderground v.1.15,2013-01-24 02:22:00,
2013-01-23 19:24:00,26.6,14.6,30.72,WNW,300,0.0,0.0,60,0.00,,,0.00,Wunderground v.1.15,2013-01-24 02:24:00,
2013-01-23 19:26:00,26.4,14.4,30.72,WNW,300,0.0,0.0,60,0.00,,,0.00,Wunderground v.1.15,2013-01-24 02:26:00,
2013-01-23 19:28:00,26.4,14.4,30.72,WNW,300,0.0,0.0,60,0.00,,,0.00,Wunderground v.1.15,2013-01-24 02:28:00,
2013-01-23 19:32:00,26.3,14.3,30.73,WNW,300,0.0,0.0,60,0.00,,,0.00,Wunderground v.1.15,2013-01-24 02:32:00,
2013-01-23 19:34:00,26.3,14.7,30.73,WNW,300,0.0,0.0,61,0.00,,,0.00,Wunderground v.1.15,2013-01-24 02:34:00,
2013-01-23 19:38:00,26.1,14.8,30.73,WNW,300,0.0,0.0,62,0.00,,,0.00,Wunderground v.1.15,2013-01-24 02:38:00,
2013-01-23 19:40:00,26.0,14.8,30.73,WNW,300,0.0,0.0,62,0.00,,,0.00,Wunderground v.1.15,2013-01-24 02:40:00,
2013-01-23 19:46:00,25.8,14.6,30.73,WNW,300,0.0,0.0,62,0.00,,,0.00,Wunderground v.1.15,2013-01-24 02:46:00,
2013-01-23 19:48:00,25.7,14.5,30.73,WNW,300,0.0,0.0,62,0.00,,,0.00,Wunderground v.1.15,2013-01-24 02:48:00,
2013-01-23 19:54:00,25.4,14.5,30.73,WNW,300,0.0,0.0,63,0.00,,,0.00,Wunderground v.1.15,2013-01-24 02:54:00,
2013-01-23 19:56:00,25.1,14.3,30.73,WNW,300,0.0,0.0,63,0.00,,,0.00,Wunderground v.1.15,2013-01-24 02:56:00,
2013-01-23 20:00:00,24.8,14.0,30.73,WNW,300,0.0,0.0,63,0.00,,,0.00,Wunderground v.1.15,2013-01-24 03:00:00,
2013-01-23 20:02:00,24.8,14.3,30.73,WNW,300,0.0,0.0,64,0.00,,,0.00,Wunderground v.1.15,2013-01-24 03:02:00,
2013-01-23 20:04:00,24.7,14.2,30.73,WNW,300,0.0,0.0,64,0.00,,,0.00,Wunderground v.1.15,2013-01-24 03:04:00,
2013-01-23 20:06:00,24.7,14.2,30.73,WNW,300,0.0,0.0,64,0.00,,,0.00,Wunderground v.1.15,2013-01-24 03:06:00,
2013-01-23 20:08:00,24.5,14.1,30.73,WNW,300,0.0,0.0,64,0.00,,,0.00,Wunderground v.1.15,2013-01-24 03:08:00,
2013-01-23 20:10:00,24.4,14.0,30.73,WNW,300,0.0,0.0,64,0.00,,,0.00,Wunderground v.1.15,2013-01-24 03:10:00,
2013-01-23 20:16:00,24.2,13.8,30.67,WNW,300,0.0,0.0,64,0.00,,,0.00,Wunderground v.1.15,2013-01-24 03:16:00,
2013-01-23 20:18:00,24.1,14.0,30.67,WNW,300,0.0,0.0,65,0.00,,,0.00,Wunderground v.1.15,2013-01-24 03:18:00,
2013-01-23 20:24:00,24.1,14.0,30.67,WNW,300,0.0,0.0,65,0.00,,,0.00,Wunderground v.1.15,2013-01-24 03:24:00,
2013-01-23 20:28:00,24.4,14.3,30.67,WNW,300,0.0,0.0,65,0.00,,,0.00,Wunderground v.1.15,2013-01-24 03:28:00,
2013-01-23 20:30:00,24.4,14.3,30.67,WNW,300,0.0,0.0,65,0.00,,,0.00,Wunderground v.1.15,2013-01-24 03:30:00,
2013-01-23 20:34:00,24.4,14.3,30.67,WNW,300,0.0,0.0,65,0.00,,,0.00,Wunderground v.1.15,2013-01-24 03:34:00,
2013-01-23 20:36:00,24.5,14.4,30.67,WNW,300,0.0,0.0,65,0.00,,,0.00,Wunderground v.1.15,2013-01-24 03:36:00,
2013-01-23 20:38:00,24.4,14.3,30.67,WNW,300,0.0,0.0,65,0.00,,,0.00,Wunderground v.1.15,2013-01-24 03:38:00,
2013-01-23 20:42:00,24.4,14.3,30.67,WNW,300,0.0,1.0,65,0.00,,,0.00,Wunderground v.1.15,2013-01-24 03:42:00,
2013-01-23 20:44:00,24.2,14.1,30.67,WNW,300,0.0,1.0,65,0.00,,,0.00,Wunderground v.1.15,2013-01-24 03:44:00,
2013-01-23 20:48:00,23.9,13.5,30.68,WNW,300,0.0,1.0,64,0.00,,,0.00,Wunderground v.1.15,2013-01-24 03:48:00,
2013-01-23 20:52:00,23.5,13.1,30.68,WNW,300,0.0,0.0,64,0.00,,,0.00,Wunderground v.1.15,2013-01-24 03:52:00,
2013-01-23 20:54:00,23.5,13.1,30.68,WNW,300,0.0,0.0,64,0.00,,,0.00,Wunderground v.1.15,2013-01-24 03:54:00,
2013-01-23 20:58:00,23.3,13.3,30.68,WNW,300,0.0,1.0,65,0.00,,,0.00,Wunderground v.1.15,2013-01-24 03:58:00,
2013-01-23 21:00:00,23.3,13.3,30.69,WNW,300,0.0,0.0,65,0.00,,,0.00,Wunderground v.1.15,2013-01-24 04:00:00,
2013-01-23 21:04:00,23.2,13.2,30.69,WNW,300,0.0,0.0,65,0.00,,,0.00,Wunderground v.1.15,2013-01-24 04:04:00,
2013-01-23 21:06:00,23.2,13.2,30.69,WNW,300,0.0,0.0,65,0.00,,,0.00,Wunderground v.1.15,2013-01-24 04:06:00,
2013-01-23 21:08:00,23.2,13.2,30.69,WNW,300,0.0,0.0,65,0.00,,,0.00,Wunderground v.1.15,2013-01-24 04:08:00,
2013-01-23 21:10:00,23.2,13.2,30.69,WNW,300,0.0,0.0,65,0.00,,,0.00,Wunderground v.1.15,2013-01-24 04:10:00,
2013-01-23 21:12:00,23.2,13.2,30.69,WNW,300,0.0,0.0,65,0.00,,,0.00,Wunderground v.1.15,2013-01-24 04:12:00,
2013-01-23 21:14:00,23.3,13.3,30.69,WNW,300,0.0,0.0,65,0.00,,,0.00,Wunderground v.1.15,2013-01-24 04:14:00,
2013-01-23 21:18:00,23.6,12.8,30.65,WNW,300,0.0,1.0,63,0.00,,,0.00,Wunderground v.1.15,2013-01-24 04:18:00,
2013-01-23 21:20:00,23.8,13.0,30.65,WNW,300,0.0,0.0,63,0.00,,,0.00,Wunderground v.1.15,2013-01-24 04:20:00,
2013-01-23 21:24:00,23.8,12.7,30.65,WNW,300,0.0,0.0,62,0.00,,,0.00,Wunderground v.1.15,2013-01-24 04:24:00,
2013-01-23 21:26:00,23.6,12.5,30.65,WNW,300,0.0,0.0,62,0.00,,,0.00,Wunderground v.1.15,2013-01-24 04:26:00,
2013-01-23 21:30:00,23.5,12.4,30.66,WNW,300,0.0,0.0,62,0.00,,,0.00,Wunderground v.1.15,2013-01-24 04:30:00,
2013-01-23 21:32:00,23.5,12.4,30.66,WNW,300,0.0,0.0,62,0.00,,,0.00,Wunderground v.1.15,2013-01-24 04:32:00,
2013-01-23 21:38:00,23.0,12.3,30.66,WNW,300,0.0,0.0,63,0.00,,,0.00,Wunderground v.1.15,2013-01-24 04:38:00,
2013-01-23 21:40:00,23.0,12.3,30.66,WNW,300,0.0,0.0,63,0.00,,,0.00,Wunderground v.1.15,2013-01-24 04:40:00,
2013-01-23 21:42:00,22.9,12.5,30.66,WNW,300,0.0,0.0,64,0.00,,,0.00,Wunderground v.1.15,2013-01-24 04:42:00,
2013-01-23 21:46:00,22.5,12.1,30.65,WNW,300,0.0,0.0,64,0.00,,,0.00,Wunderground v.1.15,2013-01-24 04:46:00,
2013-01-23 21:48:00,22.4,12.1,30.65,WNW,300,0.0,0.0,64,0.00,,,0.00,Wunderground v.1.15,2013-01-24 04:48:00,
2013-01-23 21:52:00,22.4,12.4,30.65,WNW,300,0.0,1.0,65,0.00,,,0.00,Wunderground v.1.15,2013-01-24 04:52:00,
2013-01-23 21:56:00,22.5,12.5,30.65,WNW,300,0.0,1.0,65,0.00,,,0.00,Wunderground v.1.15,2013-01-24 04:56:00,
2013-01-23 21:58:00,22.5,12.5,30.65,WNW,300,0.0,1.0,65,0.00,,,0.00,Wunderground v.1.15,2013-01-24 04:58:00,
2013-01-23 22:04:00,23.0,13.0,30.64,WNW,300,0.0,0.0,65,0.00,,,0.00,Wunderground v.1.15,2013-01-24 05:04:00,
2013-01-23 22:06:00,23.0,13.0,30.64,WNW,300,0.0,0.0,65,0.00,,,0.00,Wunderground v.1.15,2013-01-24 05:06:00,
2013-01-23 22:12:00,23.0,12.6,30.64,WNW,300,0.0,0.0,64,0.00,,,0.00,Wunderground v.1.15,2013-01-24 05:12:00,
2013-01-23 22:16:00,23.0,12.6,30.61,WNW,300,0.0,0.0,64,0.00,,,0.00,Wunderground v.1.15,2013-01-24 05:16:00,
2013-01-23 22:20:00,23.0,13.0,30.61,WNW,300,0.0,0.0,65,0.00,,,0.00,Wunderground v.1.15,2013-01-24 05:20:00,
2013-01-23 22:24:00,23.0,13.0,30.61,WNW,300,0.0,0.0,65,0.00,,,0.00,Wunderground v.1.15,2013-01-24 05:24:00,
2013-01-23 22:26:00,23.0,13.3,30.61,WNW,300,0.0,0.0,66,0.00,,,0.00,Wunderground v.1.15,2013-01-24 05:26:00,
2013-01-23 22:30:00,23.0,13.3,30.61,WNW,300,0.0,0.0,66,0.00,,,0.00,Wunderground v.1.15,2013-01-24 05:30:00,
2013-01-23 22:32:00,23.0,13.3,30.61,WNW,300,0.0,0.0,66,0.00,,,0.00,Wunderground v.1.15,2013-01-24 05:32:00,
2013-01-23 22:36:00,23.0,13.3,30.61,WNW,300,0.0,0.0,66,0.00,,,0.00,Wunderground v.1.15,2013-01-24 05:36:00,
2013-01-23 22:38:00,23.0,13.3,30.61,WNW,300,0.0,0.0,66,0.00,,,0.00,Wunderground v.1.15,2013-01-24 05:38:00,
2013-01-23 22:40:00,23.0,13.7,30.61,WNW,300,0.0,0.0,67,0.00,,,0.00,Wunderground v.1.15,2013-01-24 05:40:00,
2013-01-23 22:42:00,23.0,13.7,30.61,WNW,300,0.0,0.0,67,0.00,,,0.00,Wunderground v.1.15,2013-01-24 05:42:00,
2013-01-23 22:46:00,23.0,13.7,30.61,WNW,300,0.0,0.0,67,0.00,,,0.00,Wunderground v.1.15,2013-01-24 05:46:00,
2013-01-23 22:48:00,22.9,13.6,30.61,WNW,300,0.0,0.0,67,0.00,,,0.00,Wunderground v.1.15,2013-01-24 05:48:00,
2013-01-23 22:50:00,22.9,13.6,30.61,WNW,300,0.0,0.0,67,0.00,,,0.00,Wunderground v.1.15,2013-01-24 05:50:00,
2013-01-23 22:52:00,22.9,13.9,30.61,WNW,300,0.0,0.0,68,0.00,,,0.00,Wunderground v.1.15,2013-01-24 05:52:00,
2013-01-23 22:54:00,22.9,13.6,30.61,WNW,300,0.0,0.0,67,0.00,,,0.00,Wunderground v.1.15,2013-01-24 05:54:00,
2013-01-23 22:56:00,22.9,13.6,30.61,WNW,300,0.0,0.0,67,0.00,,,0.00,Wunderground v.1.15,2013-01-24 05:56:00,
2013-01-23 22:58:00,22.9,13.6,30.61,WNW,300,0.0,0.0,67,0.00,,,0.00,Wunderground v.1.15,2013-01-24 05:58:00,
2013-01-23 23:00:00,22.9,13.6,30.61,WNW,300,0.0,0.0,67,0.00,,,0.00,Wunderground v.1.15,2013-01-24 06:00:00,
2013-01-23 23:04:00,22.9,13.9,30.61,WNW,300,0.0,0.0,68,0.00,,,0.00,Wunderground v.1.15,2013-01-24 06:04:00,
2013-01-23 23:06:00,22.9,13.9,30.61,WNW,300,0.0,0.0,68,0.00,,,0.00,Wunderground v.1.15,2013-01-24 06:06:00,
2013-01-23 23:08:00,22.9,13.9,30.61,WNW,300,0.0,0.0,68,0.00,,,0.00,Wunderground v.1.15,2013-01-24 06:08:00,
2013-01-23 23:12:00,22.9,13.9,30.61,WNW,300,0.0,0.0,68,0.00,,,0.00,Wunderground v.1.15,2013-01-24 06:12:00,
2013-01-23 23:14:00,22.9,13.6,30.61,WNW,300,0.0,0.0,67,0.00,,,0.00,Wunderground v.1.15,2013-01-24 06:14:00,
2013-01-23 23:16:00,22.9,13.6,30.61,WNW,300,0.0,0.0,67,0.00,,,0.00,Wunderground v.1.15,2013-01-24 06:16:00,
2013-01-23 23:18:00,22.9,13.6,30.61,WNW,300,0.0,0.0,67,0.00,,,0.00,Wunderground v.1.15,2013-01-24 06:18:00,
2013-01-23 23:20:00,22.7,13.7,30.61,WNW,300,0.0,0.0,68,0.00,,,0.00,Wunderground v.1.15,2013-01-24 06:20:00,
2013-01-23 23:24:00,22.7,13.7,30.61,WNW,300,0.0,0.0,68,0.00,,,0.00,Wunderground v.1.15,2013-01-24 06:24:00,
2013-01-23 23:26:00,22.5,13.5,30.61,WNW,300,0.0,0.0,68,0.00,,,0.00,Wunderground v.1.15,2013-01-24 06:26:00,
2013-01-23 23:28:00,22.5,13.5,30.61,WNW,300,0.0,0.0,68,0.00,,,0.00,Wunderground v.1.15,2013-01-24 06:28:00,
2013-01-23 23:30:00,22.4,13.8,30.61,WNW,300,0.0,0.0,69,0.00,,,0.00,Wunderground v.1.15,2013-01-24 06:30:00,
2013-01-23 23:32:00,22.4,13.8,30.63,WNW,300,0.0,0.0,69,0.00,,,0.00,Wunderground v.1.15,2013-01-24 06:32:00,
2013-01-23 23:34:00,22.4,13.8,30.63,WNW,300,0.0,0.0,69,0.00,,,0.00,Wunderground v.1.15,2013-01-24 06:34:00,
2013-01-23 23:38:00,22.2,13.6,30.63,WNW,300,0.0,1.0,69,0.00,,,0.00,Wunderground v.1.15,2013-01-24 06:38:00,
2013-01-23 23:40:00,22.1,13.5,30.63,WNW,300,0.0,2.0,69,0.00,,,0.00,Wunderground v.1.15,2013-01-24 06:40:00,
2013-01-23 23:46:00,21.6,12.7,30.63,WNW,300,0.0,2.0,68,0.00,,,0.00,Wunderground v.1.15,2013-01-24 06:46:00,
2013-01-23 23:48:00,21.6,13.0,30.63,WNW,300,0.0,2.0,69,0.00,,,0.00,Wunderground v.1.15,2013-01-24 06:48:00,
2013-01-23 23:52:00,21.4,12.8,30.63,WNW,300,0.0,0.0,69,0.00,,,0.00,Wunderground v.1.15,2013-01-24 06:52:00,
2013-01-23 23:54:00,21.3,12.4,30.63,WNW,300,0.0,0.0,68,0.00,,,0.00,Wunderground v.1.15,2013-01-24 06:54:00,
2013-01-23 23:58:00,21.3,12.4,30.63,WNW,300,0.0,0.0,68,0.00,,,0.00,Wunderground v.1.15,2013-01-24 06:58:00,